Theta_e
304 304 304 303 303 304 303 302 300 300 301 300 299 299 300 301 302 303 302 302 303 303 304 304 303 304 305 306 308 308 309 309 314 316 314 312 310 308 306 307 306 306 306
305 304 304 304 304 304 303 303 302 302 302 302 301 301 300 301 303 303 303 302 303 303 304 305 304 304 304 305 307 307 309 312 314 312 311 311 306 305 305 305 305 306 307
304 304 305 305 305 304 304 303 303 304 303 303 303 303 302 302 303 304 304 304 303 303 303 304 305 305 305 305 307 307 308 310 311 310 308 308 306 306 307 307 307 306 307
305 305 306 306 306 304 303 303 304 304 304 303 303 304 304 304 304 304 303 303 304 303 303 304 305 306 305 306 306 307 308 307 306 307 307 307 305 305 306 306 307 306 306
306 306 306 306 305 304 303 304 304 304 304 304 304 304 304 305 305 305 302 302 302 302 303 305 304 305 305 306 306 306 306 306 306 305 305 306 306 305 305 305 306 306 306
306 306 306 306 305 304 304 304 305 305 306 305 305 304 304 305 305 304 303 303 302 302 302 304 305 302 302 304 305 305 305 305 305 304 304 304 303 304 304 305 305 306 305
306 306 305 305 305 305 304 304 304 305 305 304 304 304 304 304 304 305 305 304 303 302 302 302 305 304 301 302 304 304 305 305 305 305 304 304 304 304 305 305 305 305 305
306 306 306 306 305 305 304 303 304 305 305 305 305 305 305 304 304 304 304 303 303 303 302 302 302 303 304 302 302 301 302 304 305 305 305 306 306 306 306 305 306 306 305
305 306 307 307 306 305 305 304 304 305 305 305 305 305 305 305 305 304 304 303 303 303 303 303 303 303 303 304 301 300 302 304 303 303 303 304 305 306 306 306 305 305 303
305 305 307 307 305 305 305 305 305 305 304 304 304 304 304 304 304 305 304 304 304 303 303 303 302 302 303 303 304 303 302 303 303 303 302 302 302 303 305 306 307 305 303
305 306 307 307 306 305 305 305 305 305 304 304 304 304 304 303 303 304 305 304 303 303 303 303 303 302 303 302 302 303 303 303 302 302 302 301 301 301 302 302 304 305 303
305 305 306 306 306 305 304 304 304 304 304 305 305 304 304 303 303 303 303 305 305 304 303 303 303 302 302 302 302 302 302 302 301 302 302 301 301 301 301 301 301 301 302
305 305 305 305 307 306 305 305 305 305 305 305 304 304 303 304 303 303 303 304 305 304 304 304 304 303 302 302 301 301 301 301 301 301 302 302 302 300 300 300 300 300 300
306 305 306 305 306 306 307 306 305 306 305 305 304 304 303 303 302 302 303 303 305 305 305 304 304 304 304 302 302 302 301 302 302 302 302 302 302 301 300 300 300 300 299
305 305 305 305 305 306 308 308 307 307 306 305 304 304 304 303 303 302 302 302 303 303 303 303 303 304 303 304 303 302 302 301 301 302 302 301 301 301 301 301 301 301 300
305 305 305 305 306 307 308 308 308 308 308 305 304 304 304 303 302 301 301 301 302 303 303 302 302 302 303 303 304 304 304 302 302 302 302 301 301 301 301 301 302 301 300
305 305 305 305 306 307 308 308 307 305 307 306 306 303 303 302 301 301 301 301 301 302 302 302 301 301 300 301 302 303 304 305 303 302 302 301 301 301 301 301 301 301 301
306 305 305 305 306 307 308 307 306 305 304 304 303 302 303 302 302 301 301 301 301 301 301 301 301 300 298 299 299 300 303 304 305 304 303 302 302 302 302 302 302 301 301
305 305 305 304 305 306 308 307 307 306 305 304 302 302 302 302 302 301 301 301 301 301 301 301 301 300 299 298 298 298 300 302 302 304 305 305 304 303 302 302 302 302 302
306 305 305 305 305 305 304 305 306 305 303 303 302 302 301 302 301 301 301 301 301 301 301 300 300 300 299 298 297 297 298 299 300 302 303 305 306 306 304 303 302 303 303
308 306 305 305 305 304 304 304 304 304 304 303 302 301 301 301 301 300 300 300 300 301 300 300 300 300 299 298 297 297 297 298 299 300 302 303 306 305 305 304 303 302 303
305 305 305 305 304 304 303 303 303 302 302 302 302 301 301 301 301 299 299 298 299 299 299 298 299 299 298 297 297 296 297 298 299 300 302 302 304 306 305 304 304 303 302
306 307 306 304 304 304 303 302 302 301 301 300 301 301 300 300 300 299 299 299 299 299 298 297 297 298 297 297 296 296 296 298 299 300 302 303 304 305 306 305 304 303 302
306 306 306 305 304 303 303 302 302 301 300 300 300 300 300 300 299 299 299 298 298 299 298 297 297 297 297 296 297 296 296 298 300 301 303 303 303 304 305 306 306 305 304
306 306 306 305 304 304 302 302 301 300 300 299 299 299 299 299 299 299 297 297 297 298 298 297 297 296 296 296 296 296 296 298 300 303 304 304 304 305 306 307 306 307 306
307 306 306 304 304 302 302 301 301 300 300 300 299 299 299 299 298 296 296 296 295 295 295 295 295 294 294 295 295 295 296 298 300 301 304 304 304 306 307 307 307 307 307
Wind_Speed
13 14 15 15 17 16 15 15 17 22 25 23 20 20 20 20 20 18 16 19 21 23 22 22 22 19 18 14 10 8 4 5 3 3 9 13 18 25 25 26 27 26 22
13 15 16 15 15 15 15 15 16 19 22 22 21 20 20 21 21 19 17 16 17 20 21 21 21 22 22 19 14 11 7 4 7 9 11 13 19 22 27 29 29 25 24
13 15 17 19 21 19 17 17 18 19 19 21 21 20 19 21 21 21 18 16 15 17 19 19 21 22 23 22 16 16 13 14 15 16 12 19 17 24 29 29 27 26 24
13 15 18 18 16 17 18 18 20 19 20 21 19 20 19 17 17 19 21 16 16 16 17 17 18 18 19 20 17 15 18 24 20 22 20 16 18 17 20 23 22 22 23
11 14 15 18 16 16 19 19 21 21 22 23 23 21 19 19 19 17 20 19 18 19 18 18 16 15 15 18 19 14 15 19 19 16 14 14 13 8 12 14 18 20 18
13 15 15 15 16 16 17 19 19 21 23 21 22 22 22 20 17 15 16 20 21 21 22 21 15 18 15 16 16 17 17 18 18 14 12 8 6 8 11 12 17 13 3
12 14 16 15 15 16 14 16 20 19 22 24 24 25 24 21 18 17 14 15 20 22 22 21 20 15 16 15 17 19 20 18 16 14 14 9 7 8 9 9 6 7 5
10 11 12 13 14 14 16 14 16 19 18 19 20 23 25 26 21 16 19 17 17 17 19 20 17 15 14 13 15 20 22 20 18 17 16 13 10 9 10 13 14 14 13
9 12 11 11 11 13 15 13 15 18 20 17 18 21 22 22 23 22 17 19 19 17 17 19 18 16 13 11 13 16 17 16 14 15 15 14 13 9 9 13 10 10 5
7 10 10 9 10 10 11 11 13 16 19 16 18 19 19 20 20 19 23 18 15 18 18 16 17 13 13 11 11 12 13 12 11 13 14 14 13 12 11 6 7 7 7
6 8 8 8 8 8 7 8 10 14 18 22 21 19 20 20 23 19 16 19 16 16 16 15 15 13 11 11 11 9 9 9 10 12 12 14 15 14 13 11 9 6 6
4 6 7 8 7 7 9 11 11 12 15 19 21 21 21 23 22 20 19 12 16 14 15 13 12 13 12 11 10 9 7 8 9 11 11 11 12 13 12 11 11 11 10
3 5 5 6 5 7 7 8 10 10 13 16 18 19 21 21 22 21 19 17 14 17 14 12 11 11 10 12 10 9 7 7 7 9 8 9 8 8 8 12 15 16 16
3 3 4 6 6 9 8 6 7 9 12 15 17 15 17 19 21 19 19 19 17 11 14 15 14 12 11 11 9 8 7 7 7 6 6 6 5 7 11 11 13 15 19
3 4 5 7 7 9 10 8 7 5 7 11 15 12 12 18 18 17 15 16 15 15 17 18 19 21 18 12 11 10 7 6 5 5 5 5 6 6 6 8 10 12 13
3 3 5 8 9 9 10 9 7 7 4 5 13 12 11 12 16 16 13 14 14 14 18 20 20 19 18 16 15 11 10 8 5 4 4 4 5 7 10 10 9 10 10
3 2 3 6 6 9 8 10 9 9 3 2 6 8 8 10 12 16 14 11 15 16 19 16 18 18 16 16 15 13 12 9 5 6 5 4 4 5 4 2 3 2 3
1 2 5 6 8 7 3 6 5 6 5 6 7 10 9 8 10 13 14 13 16 16 16 15 14 16 18 16 16 13 11 9 7 4 3 3 2 2 2 1 1 3 4
2 1 4 7 6 5 4 3 3 4 5 2 7 11 13 9 8 10 11 12 12 13 14 15 13 12 16 16 16 14 10 9 8 6 4 3 3 2 2 2 1 1 1
3 4 6 10 5 5 6 7 3 3 4 4 4 8 12 8 12 11 11 11 11 12 12 13 13 10 14 16 16 16 14 11 8 6 6 5 4 7 5 2 3 2 1
7 6 7 7 4 6 6 4 2 3 3 6 4 5 8 5 7 9 10 12 11 10 11 12 12 9 13 16 16 15 15 13 11 6 7 7 3 2 2 5 4 5 4
11 7 5 7 4 4 4 3 1 2 3 5 4 3 5 4 7 9 11 10 10 9 11 12 11 10 13 16 16 15 14 14 12 7 6 6 3 1 2 3 5 4 4
5 8 7 6 6 5 5 4 4 3 4 6 6 5 7 7 8 9 12 11 8 7 7 12 14 10 12 15 16 15 14 15 13 9 6 5 1 1 3 5 4 5 5
10 12 13 12 9 7 7 6 5 5 4 7 8 7 8 8 8 8 8 11 13 7 4 8 9 10 12 14 16 14 13 13 13 8 6 7 4 3 5 4 5 6 6
5 4 11 13 11 8 7 6 5 5 5 5 9 11 9 8 8 6 6 10 13 8 4 7 7 10 14 14 14 13 12 12 13 9 7 6 4 7 10 8 4 8 10
8 9 9 10 9 6 4 5 6 7 8 6 8 9 6 3 3 5 9 13 13 9 8 8 11 14 14 13 10 11 10 11 9 8 6 8 6 6 11 8 2 3 6
Wind_Direction
40 36 31 27 21 24 31 29 28 26 24 26 25 20 23 23 24 23 22 19 25 27 29 30 28 25 23 18 14 5 327 240 235 87 112 113 103 99 88 84 80 79 76
39 44 37 27 24 26 28 25 19 15 21 24 29 30 26 24 25 22 18 19 17 18 22 25 23 23 26 22 25 24 7 268 203 113 97 107 98 102 99 90 82 82 81
40 43 38 31 32 31 27 21 22 18 23 27 31 31 25 20 22 23 21 21 20 19 20 23 20 18 21 22 28 40 47 76 115 112 96 115 110 107 99 96 96 88 89
37 27 28 27 26 28 30 29 27 28 27 28 29 30 24 17 18 19 19 23 28 22 19 23 19 20 20 24 35 44 65 77 76 88 94 94 107 105 106 104 98 105 99
25 24 26 26 36 37 40 35 39 44 38 36 34 34 30 29 23 20 28 36 34 30 29 25 31 27 31 33 42 55 78 86 84 80 82 94 101 134 124 124 121 120 116
45 28 26 36 43 42 43 40 39 32 33 34 34 35 32 26 19 30 32 39 37 33 27 30 43 45 44 48 55 63 74 87 86 80 87 99 93 121 154 146 133 122 105
43 40 43 45 41 35 35 32 31 36 41 43 41 39 36 26 28 29 21 18 30 34 31 32 50 49 47 60 69 77 78 80 87 97 93 91 95 117 142 138 138 106 98
38 31 29 32 36 35 38 40 36 40 36 29 34 36 38 34 30 30 34 32 31 37 37 34 38 42 43 58 76 82 86 80 79 81 83 84 89 109 115 133 121 107 96
32 21 20 19 24 33 42 57 42 35 30 33 33 34 33 28 26 25 27 34 38 38 38 35 35 43 43 56 84 88 88 85 85 79 81 82 81 93 127 142 132 120 83
25 17 20 25 37 50 49 45 34 29 33 42 39 31 24 19 16 19 27 27 23 29 32 37 42 40 42 51 66 87 93 93 93 84 76 69 65 71 80 120 159 132 123
16 23 31 29 27 30 27 31 33 31 35 43 46 42 39 32 27 22 18 28 21 27 29 27 29 38 54 61 64 70 89 114 97 84 77 69 58 56 60 70 84 121 126
15 25 32 34 32 28 37 47 48 42 39 34 33 31 31 31 31 28 24 16 26 29 27 29 31 38 53 60 65 72 92 100 104 95 85 74 66 53 60 72 77 82 84
13 18 16 9 358 359 7 29 35 32 24 16 17 22 23 22 18 23 33 30 40 40 31 31 37 49 61 59 63 77 88 95 88 79 74 73 70 56 78 88 87 86 85
349 15 357 354 343 340 316 325 343 7 9 9 9 8 23 25 23 25 28 29 28 35 29 47 44 47 48 60 65 67 71 72 78 81 78 76 88 98 94 99 101 98 93
354 344 338 340 339 352 358 330 314 329 8 3 4 8 17 19 17 17 29 32 36 42 46 42 36 39 40 48 51 54 58 63 70 72 77 87 88 103 100 91 92 97 99
344 341 343 334 343 356 350 355 1 335 302 14 20 26 11 12 17 20 27 39 39 39 48 39 36 37 36 37 38 35 36 42 43 51 65 84 89 96 114 99 85 87 95
313 351 343 333 353 347 358 2 3 29 32 333 354 9 9 18 16 17 23 33 37 43 46 39 36 30 26 31 32 29 20 23 33 47 57 71 94 118 148 128 52 87 121
258 317 329 345 359 345 19 12 29 26 16 24 16 10 1 359 3 12 16 28 36 40 37 33 31 30 28 26 23 22 27 42 35 19 32 57 84 121 154 197 56 81 95
283 90 354 348 335 350 336 330 341 334 338 351 22 13 10 3 20 18 22 26 22 24 26 29 27 28 25 24 21 19 18 23 24 35 29 302 272 241 239 242 178 118 119
289 292 301 321 319 353 2 354 304 334 346 341 336 3 360 7 15 20 21 16 14 15 14 14 16 26 22 18 15 14 13 10 6 3 9 6 332 247 249 251 205 221 238
276 282 273 311 307 323 325 346 355 312 316 330 311 0 15 3 7 4 7 5 3 7 10 8 5 11 9 8 7 7 7 5 360 357 355 352 2 186 245 239 243 237 247
299 274 269 267 280 315 350 8 13 19 7 355 326 337 1 12 4 3 8 8 4 5 6 2 355 355 356 0 358 358 357 1 358 353 360 17 54 145 250 230 225 239 230
302 233 252 248 264 277 303 315 323 342 4 0 344 340 12 358 356 360 348 346 335 336 1 5 353 341 347 352 356 349 347 352 351 343 332 347 4 321 290 254 238 231 222
306 253 249 252 260 273 297 303 302 317 335 353 2 1 352 354 357 340 344 352 355 333 333 350 357 354 347 345 345 342 342 346 348 341 317 306 285 328 327 303 235 220 206
322 288 238 246 254 265 285 297 312 337 322 324 352 347 347 352 346 0 8 6 359 349 320 321 333 343 345 341 338 340 342 343 340 337 332 313 290 330 341 332 297 232 242
285 266 253 262 240 257 289 308 320 322 324 309 340 356 6 27 37 20 7 354 349 345 344 332 326 328 333 339 342 344 343 341 345 325 326 327 325 313 324 316 317 204 238